Regional Weather Roundup
Issued by NWS

Home | Current Version | Previous Version | Graphics & Text | Print | Product List | Glossary On
Versions: 1 2 3 4 5 6 7 8 9 10 11 12 13 14 15 16 17 18 19 20 21 22 23 24 25 26 27 28 29 30 31 32 33 34 35 36 37 38 39 40 41 42 43 44 45 46 47 48 49 50
000
ASUS43 KOAX 282202
RWRNE
WEATHER ROUNDUP FOR NEBRASKA
NATIONAL WEATHER SERVICE OMAHA NE
500 PM CDT THU MAY 28 2015

NOTES: SATELLITE DATA IS BEING USED TO AUGMENT CLOUD COVER ABOVE
       12000 FEET.
       "FAIR" INDICATES FEW OR NO CLOUDS BELOW 12,000 FEET WITH NO
       SIGNIFICANT WEATHER AND/OR OBSTRUCTIONS TO VISIBILITY.

  * THESE STATIONS DO NOT REPORT WEATHER SUCH AS RAIN...SNOW OR FOG.

NEZ001>004-019>022-054>056-282300-
NEBRASKA PANHANDLE

CITY           SKY/WX    TMP DP  RH WIND       PRES   REMARKS
SCOTTSBLUFF    CLOUDY    73  48  41 W6        29.92F
ALLIANCE       CLOUDY    66  52  60 SW9       29.92S
CHADRON        PTSUNNY   71  54  54 MISG      29.91F
KIMBALL          N/A    N/A N/A N/A MISG        N/A
SIDNEY         LGT RAIN  57  51  80 NW6       30.00F
$$

NEZ057>060-069>072-079>082-282300-
SOUTHWEST NEBRASKA

CITY           SKY/WX    TMP DP  RH WIND       PRES   REMARKS
NORTH PLATTE   PTSUNNY   76  61  59 S9        29.88F
IMPERIAL       MOSUNNY   73  60  63 SE15      29.89F
LEXINGTON      MOSUNNY   76  62  62 S14       29.90F
MCCOOK         PTSUNNY   75  59  57 S21G26    29.89F
$$

NEZ005>010-023>029-035>040-094-282300-
NORTH CENTRAL NEBRASKA

CITY           SKY/WX    TMP DP  RH WIND       PRES   REMARKS
VALENTINE      LGT RAIN  71  48  43 SE8G23    29.83F
AINSWORTH      PTSUNNY   78  60  53 S15       29.88F
BROKEN BOW     CLOUDY    74  60  61 S12G21    29.90F
ORD            PTSUNNY   76  59  55 S14       29.89F
$$

NEZ041-046>049-061>064-073>077-083>087-282300-
SOUTH CENTRAL NEBRASKA

CITY           SKY/WX    TMP DP  RH WIND       PRES   REMARKS
GRAND ISLAND   CLOUDY    77  59  53 S13       29.90F
HASTINGS       MOSUNNY   77  59  53 S9        29.91F
KEARNEY *      MOSUNNY   77  57  50 S16       29.90F
$$

NEZ011>018-030>034-042>045-282300-
NORTHEAST NEBRASKA

CITY           SKY/WX    TMP DP  RH WIND       PRES   REMARKS
NORFOLK        CLOUDY    74  64  71 SE21      29.91F
BLAIR          CLOUDY    69  63  82 SE10      29.96F
COLUMBUS *     CLOUDY    75  63  64 SE13      29.92F
FREMONT        CLOUDY    71  65  80 SE10G16   29.95F
TEKAMAH        LGT RAIN  70  67  90 SE14      29.96F
$$

NEZ050>053-065>068-078-088>093-282300-
SOUTHEAST NEBRASKA

CITY           SKY/WX    TMP DP  RH WIND       PRES   REMARKS
LINCOLN        CLOUDY    77  66  68 S17       29.93F
OMAHA EPPLEY   CLOUDY    71  65  81 S16       29.96F
FALLS CITY     CLOUDY    71  65  81 S10       29.97F
$$

NEZ044-045-051>053-067-282300-
OMAHA AREA

CITY           SKY/WX    TMP DP  RH WIND       PRES   REMARKS
OMAHA EPPLEY   CLOUDY    71  65  81 S16       29.96F
BLAIR          CLOUDY    69  63  82 SE10      29.96F
FREMONT        CLOUDY    71  65  80 SE10G16   29.95F
OFFUTT AFB     CLOUDY    72  64  77 SE13      29.95F
$$


USA.gov is the U.S. government's official web portal to all federal, state and local government web resources and services.